LEGION 1

Last updated on Sun Jan 18 2026 00:02:30 GMT+0000 (Coordinated Universal Time)

1 59625U 24081A 26017.55651003 .00004678 00000+0 24093-3 0 9998 2 59625 97.5170 96.8910 0005215 165.7762 194.3619 15.16879805 94701
UTC large
Height (km)
Speed (km/s)
/
Latitude / Longitude
Inclination (degrees)
Orbital Period (minutes)
Azimuth
Elevation
Range (km)
Doppler Factor

Next 0 passes for location: London (51.5072 / 0.1276)

Sorry there are no passes over London.